STARLINK-32637, 62032

Orbit data source: Space-Track

STARLINK-32637, 62032 is a payload satellite owned by SpaceX/Seattle (US) in LEO that was launched on Thu, 21 Nov 2024 UTC via an FALCON 9 launch vehicle from the Air Force Eastern Test Range (AFETR). Payload-class satellites include a variety of spacecraft equipped with specific instruments for various scientific and technological missions. These include communications satellites like Starlink; space stations such as the ISS; scientific satellites like the Hubble; Earth observation satellites from companies like Planet Labs, Umbra, and HawkEye 360; GPS; miniature CubeSats for education and research; and military/defense satellites.

Loading next visibility...
Identifier
62032, 2024-216A
Orbit
LEO
Last TLE update
19 hours ago
Origin
Manufacturer
SpaceX/Seattle
Mission
Operational Commercial Communications
Bus & Motor
STARLINK V2M, Unknown motor
Mass
730 kg wet, ~700 kg dry
Launch date (UTC)
2024-11-21 (6 months ago)
Launch vehicle
FALCON 9
Launch site
Air Force Eastern Test Range (AFETR)
Object type
Payload
Rocket body
Debris
Shape & HBR
Box + 2 Pan, 29 m
Radar Cross Section
36.964 m², Large (>1 m²)

Expand to show TLE details & history

TLE from 19 hours ago
0 STARLINK-32637
1 62032U 24216A   25128.46067800  .00000827  00000-0  27105-4 0  9993
2 62032  43.0119 186.2744 0005039 305.2476  54.7909 15.40714939 27128
Epoch: 2025-05-08T11:03Z
Definitive object data (Epoch: 2025-05-08T11:03:22.579Z)
Latitude
0.00001°
Longitude
153.89948°
Altitude
441.793 km
Speed
7.65 km/s
True Right ascension
12h 25m 05s
True Declination
0° 00' 00"
Sunlit
Object was in full shadow at TLE epoch
Visualization TLE readout
Latitude
24.83181°
Longitude
178.93248°
Altitude
443.673 km
Speed
7.65 km/s
Apparent Right ascension
14h 16m 54s
Apparent Declination
-43° 16' 54"
Sunlit
Object is in full shadow
Visualization observer readout
Local Sidereal Time
14:02:08
Azimuth
177.294° S
Elevation
6.735°
Doppler factor
1
Orbital elements
Apogee altitude
449.391 km
Perigee altitude
442.514 km
Semi-major axis
6,824.089 km
Eccentricity
0.0005039
Inclination
43.0119°
RAAN
186.2744°
Arg. of periapsis
305.2476°
True anomaly
54.8381°
Mean anomaly
54.7909°
Eccentric anomaly
54.8145°
Mean motion
3.85014 °/min
BSTAR
0.000027105
Orbital period
93.5 mins
Loading maneuver chart data...
Loading SW <> Apogee altitude chart data...
Loading historical data...
Loading historical data...
Loading historical data...
Loading historical data...
Loading historical data...
Loading historical data...
Loading historical data...

STARLINK-32637 Visibility forecast

Observer location: undefined°, undefined°

Span
Click to sort rows by Start time (UTC) header in descending order
Start Az.
Max El. time (UTC)
Max El. Az.
Max El.
End time (UTC)
End Az.
5 mins2025-05-09 07:31:23.532Z226.177° WSW2025-05-09 07:33:23.532Z153.475° SSE39.596°2025-05-09 07:36:23.532Z78.25° E
5 mins2025-05-09 09:09:23.532Z280.811° WNW2025-05-09 09:11:23.532Z345.275° N39.026°2025-05-09 09:14:23.532Z69.081° E
5 mins2025-05-09 10:47:23.532Z293.812° NW2025-05-09 10:49:23.532Z335.485° NNW38.804°2025-05-09 10:52:23.532Z87.449° E
4 mins2025-05-09 12:26:23.532Z263.036° W2025-05-09 12:27:23.532Z232.322° WSW33.815°2025-05-09 12:30:23.532Z138.277° SSE
|